Skip Page Navigation
NASA JPL Caltech
NASA Logo - Jet Propulsion Laboratory + View the NASA Portal
+ Center for Near-Earth Object Studies
JPL Home Earth Solar System Stars & Galaxies Technology
JPL Solar System Dynamics
BODIES ORBITS EPHEMERIDES TOOLS PHYSICAL DATA DISCOVERY FAQ SITE MAP
IMPORTANT: The SSD Announcement email list is now available. Major changes are coming in the near future, including possible hostname and/or URL changes. To be notified of such changes, subscribe to this email list.

Please visit this page for more details.


JPL Small-Body Database Browser
Search: [ help ]  
535029 (2014 WG510)
Classification: TransNeptunian Object          SPK-ID: 2535029
Ephemeris | Orbit Diagram | Orbital Elements | Physical Parameters | Discovery Circumstances ]

[ hide orbit diagram ]

For accurate long-term ephemerides, please instead use our Horizons system.This orbit viewer was implemented using two-body methods, and hence should not be used for determining accurate long-term trajectories (over several years or decades) or planetary encounter circumstances.


[ revert to old Java-based viewer ]

Orbital Elements at Epoch 2458600.5 (2019-Apr-27.0) TDB
Reference: JPL 5 (heliocentric ecliptic J2000)
 Element Value Uncertainty (1-sigma)   Units 
e .2142617514830817 3.3316e-05  
a 39.02558756189932 0.0012743 au
q 30.66389681823041 0.0011321 au
i 17.48771666141474 1.9506e-05 deg
node 167.4555295953905 0.00036408 deg
peri 176.1771969643918 0.0056353 deg
M 67.01140045678312 0.0062626 deg
tp 2442024.917626916762
(1973-Dec-08.41762692)
0.73858 TDB
period 89047.67865817592
243.80
4.3615
0.01194
d
yr
n .004042778042333017 1.9801e-07 deg/d
Q 47.38727830556823 0.0015473 au
  Orbit Determination Parameters
   # obs. used (total)      99  
   data-arc span      2679 days (7.33 yr)  
   first obs. used      2010-09-06  
   last obs. used      2018-01-06  
   planetary ephem.      DE431  
   SB-pert. ephem.      SB431-N16  
   condition code      2  
   norm. resid. RMS      .59364  
   source      ORB  
   producer      Otto Matic  
   solution date      2019-May-30 11:27:49  

Additional Information
 Earth MOID = 29.6558 au 
 Jupiter MOID = 25.6821 au 
 T_jup = 5.236 
[ show covariance matrix ]

Ephemeris | Orbit Diagram | Orbital Elements | Physical Parameters | Discovery Circumstances ]

Physical Parameter Table
Parameter Symbol Value Units Sigma Reference Notes
absolute magnitude H 6.7   n/a E2018Y78  

535029 (2014 WG510)          Discovered 2010-Sep-06 by Pan-STARRS 1 at Haleakala
Reference: Last Updated: 2019-05-29
Ephemeris | Orbit Diagram | Orbital Elements | Physical Parameters | Discovery Circumstances ]
ABOUT SSD CREDITS/AWARDS PRIVACY/COPYRIGHT GLOSSARY LINKS
FirstGov 2019-Dec-11 20:10 UT
(server date/time)  
NASA Home Page
Site Manager:   Ryan S. Park
Webmaster  Alan B. Chamberlin